Regional Weather Roundup
Issued by NWS

Home | Current Version | Previous Version | Graphics & Text | Print | Product List | Glossary Off
Versions: 1 2 3 4 5 6 7 8 9 10 11 12 13 14 15 16 17 18 19 20 21 22 23 24 25 26 27 28 29 30 31 32 33 34 35 36 37 38 39 40 41 42 43 44 45 46 47 48 49 50

000
ASUS43 KMKX 301421
RWRWI

WISCONSIN REGIONAL WEATHER ROUNDUP
NATIONAL WEATHER SERVICE MILWAUKEE/SULLIVAN WI
900 AM CDT THU JUL 30 2015

NOTE: "FAIR" INDICATES FEW OR NO CLOUDS BELOW 12,000 FEET WITH NO
SIGNIFICANT WEATHER AND/OR OBSTRUCTIONS TO VISIBILITY.

WIZ001-002-006>008-014>016-023>028-301500-
NORTHWEST WISCONSIN

CITY           SKY/WX    TMP DP  RH WIND       PRES   REMARKS
SUPERIOR ARPT  SUNNY     71  61  70 W8        29.95S
ASHLAND        SUNNY     72  60  66 W10       29.94R
HAYWARD        SUNNY     71  58  63 VRB5      29.99S
SIREN          SUNNY     70  58  65 W9        30.00S
CUMBERLAND     SUNNY     68  55  64 W10       30.01S
RICE LAKE      SUNNY     69  59  71 W7        30.02S
CHETEK         SUNNY     70  59  66 W6        30.01S
LADYSMITH      SUNNY     71  59  66 W9        30.02R
EAU CLAIRE     SUNNY     70  57  63 W14       30.01S
MENOMONIE      SUNNY     72  57  57 W10       30.02S
NEW RICHMOND   SUNNY     72  55  55 W14       30.02F
OSCEOLA        MOSUNNY   70  58  64 W6        30.04S
$$

WIZ003>005-009-010-017-018-301500-
NORTH CENTRAL WISCONSIN

CITY           SKY/WX    TMP DP  RH WIND       PRES   REMARKS
MANITOWISH WTR SUNNY     69  57  65 W12G22    29.94S
ARBOR VITAE    SUNNY     72  58  62 NW14G20   29.95R
WOODRUFF       SUNNY     72  58  62 NW14G20   29.95R
RHINELANDER    SUNNY     70  56  61 W14       29.97R
EAGLE RIVER    SUNNY     70  53  54 NW18G29   29.93S
LAND O LAKES   SUNNY     70  55  57 NW15      29.94R
PHILLIPS       SUNNY     69  58  67 W7        29.98S
TOMAHAWK       SUNNY     68  56  64 W15       29.98R
MEDFORD        SUNNY     68  58  70 W10       30.01R
MERRILL        NOT AVBL
$$

WIZ029-030-035-036-043>047-301500-
CENTRAL WISCONSIN

CITY           SKY/WX    TMP DP  RH WIND       PRES   REMARKS
WAUSAU         SUNNY     72  57  59 W16       29.97S
MOSINEE        SUNNY     72  59  64 W10G18    30.00S
MARSHFIELD     SUNNY     72  57  59 W9        30.01R
STEVENS POINT  SUNNY     69  56  63 W8        30.00S
WAUPACA        SUNNY     75  57  54 W8        29.99S
WAUTOMA        SUNNY     76  57  51 W9        30.01S
WISC RAPIDS    SUNNY     73  55  53 W12       30.02R
CAMP DOUGLAS   SUNNY     73  61  66 W10       30.03R
$$

WIZ011>013-019>022-031-037>040-048>050-301500-
NORTHEAST WISCONSIN

CITY           SKY/WX    TMP DP  RH WIND       PRES   REMARKS
ANTIGO         SUNNY     70  56  63 W14G21    29.98R
SHAWANO        SUNNY     74  58  58 W10       29.96R
OCONTO         SUNNY     74  58  56 W16       29.92S
STURGEON BAY   SUNNY     73  55  53 W16       29.94S
GREEN BAY      SUNNY     73  59  61 W12       29.96R
MANITOWOC      SUNNY     75  57  53 MISG      29.97R
APPLETON       SUNNY     72  55  56 W13       29.99R
CLINTONVILLE   SUNNY     73  55  53 W8        29.97S
OSHKOSH        SUNNY     74  57  55 W10G18    29.99R
$$

WIZ032>034-041-042-053>061-301500-
SOUTHWEST WISCONSIN

CITY           SKY/WX    TMP DP  RH WIND       PRES   REMARKS
LA CROSSE      SUNNY     76  56  49 W7        30.05R
SPARTA         SUNNY     72  56  56 W8        30.05R
VIROQUA        SUNNY     72  58  62 W6        30.07S
BOSCOBEL       SUNNY     74  61  63 SW6       30.07R
PRAIRIE DU CHI SUNNY     73  57  55 SW3       30.07S
PLATTEVILLE    SUNNY     71  62  74 W6        30.09S
$$

WIZ056-057-062-063-064-067-068-301500-
SOUTH CENTRAL WISCONSIN

CITY           SKY/WX    TMP DP  RH WIND       PRES   REMARKS
REEDSBURG      SUNNY     74  58  56 W12       30.04S
BARABOO/DELLS  SUNNY     74  55  49 W8        30.04S
LONE ROCK      SUNNY     73  60  63 VRB5      30.06S
MINERAL POINT  SUNNY     72  59  64 W7        30.09R
MADISON        SUNNY     73  58  59 VRB6      30.04R
MIDDLETON      SUNNY     75  57  53 W13       30.06R
WATERTOWN      SUNNY     73  60  65 W9        30.03S
MONROE         SUNNY     72  59  64 W8        30.08R
JANESVILLE     SUNNY     73  59  60 W7        30.06R
$$

WIZ051-052-058>065-066-070>072-301500-
SOUTHEAST WISCONSIN

CITY           SKY/WX    TMP DP  RH WIND       PRES   REMARKS
MILWAUKEE      SUNNY     77  54  44 NW10      30.02R
WAUKESHA       SUNNY     72  55  56 W14       30.04R
MILWAUKEE/TIMM SUNNY     73  54  49 W12       30.02S
RACINE         SUNNY     75  58  55 W8        30.04R
BURLINGTON     SUNNY     73  56  56 W8        30.04S
KENOSHA        SUNNY     74  60  61 W10       30.05R
FOND DU LAC    SUNNY     74  58  57 W9        30.00S
SHEBOYGAN      SUNNY     74  59  59 W14       29.98S
WEST BEND      SUNNY     73  54  49 W14       30.01S
JUNEAU         SUNNY     70  59  67 W8        30.04R
$$

LSZ147-162-301500-
LAKE SUPERIOR

STATION/POSITION TIME  TEMP    WIND        PRES    WAVE
                       AIR SEA DIR/SP/G            HT/PER
                 (UTC) (F)     (DEG/KT/KT) (MB)    (FT/S)
W MID LAKE BUOY  1350   58 53  260/ 16/ 17 1010.9R   3/ 5
DEVILS ISLAND    1400   61     250/ 17/ 21 1012.7R
PORT WING        1300   67     250/ 12/ 18 1013.5R
SAXON HARBOR     1300   70                 1012.9R
$$

LMZ867-665-643>646-301500-
LAKE MICHIGAN

STATION/POSITION TIME  TEMP    WIND        PRES    WAVE
                       AIR SEA DIR/SP/G            HT/PER
                 (UTC) (F)     (DEG/KT/KT) (MB)    (FT/S)
CHAMBERS ISLAND  1300   69     220/  6/ 12 1012.2R
S GREEN BAY BUOY 1200   63 64  240/ 12/ 14 1014.5R
N MID LAKE BUOY  1350   70 69  250/ 17/ 21 1010.5R   4/ 4
NORTHPORT PIER   1300   71     270/  6/ 15 1011.5S
SISTER BAY       1314   74     290/ 19/ 21   N/A
ALGOMA LAKESHORE 1312          310/  7/ 12   N/A
KEWAUNEE LAKESHO 1400          280/  8/ 17   N/A
SHEBOYGAN LAKESH 1400   73     270/ 11/ 15 1015.1R
PORT WASHINGTON  1340   76     290/  6/ 16 1016.3R
ATWATER BUOY     1400   69     280/ 10/ 12 1017.5R
MILWAUKEE LAKESH 1400   76     290/ 11/ 15   N/A
KENOSHA   LAKESH 1400   73     280/  9/ 13 1016.9R
$$

TC  - TEMPERATURE IN CELSIUS
VSB - VISIBILITY IN STATUTE MILES
WCI - WIND CHILL INDEX
HX  - HEAT INDEX



USA.gov is the U.S. government's official web portal to all federal, state and local government web resources and services.